METEOR 2-5 DEB

Satellite information

Favourite Embed

Satellite Type and Status

DEBRISIN ORBIT

Key statistics

Satellite METEOR 2-5 DEB at a glance.

Uptime

16626

Days in orbit

Revolutions

≈ 14.3

Per day

Orbit

LEO

Low Earth Orbit

Inclination

81.2

Latest

Satellite identification and parameters

Extended collection of information and parameters for METEOR 2-5 DEB.

Object identification

Identified? True

Debris? True

Object name: METEOR 2-5 DEB

International designator: 1979-095BY

Object number (NORAD): 38278

Object ID (CCSDS): 38278

Country: COMMONWEALTH OF INDEPENDENT STATES (CIS)

Current information (Y/N): Y

RCS size: SMALL

Orbital parameters

Period: 100.453 minutes

Inclination: 81.1755 deg

SMA: 7158.166 km

Apoapsis: 787.026 km

Periapsis: 773.036 km

RAAN: 189.0654 deg

Eccentricy: 0.0009772

Argument of periapsis: 121.9151 deg

Mean anomaly: 303.9875 deg

Mean motion: 14.33508072 rev/day

Mean motion (dot): 0.00007263 rev/day2

B* drag term: 0.0026208 1/REarth

Two-line elements (TLE)

Creation date: May 6, 2025, 2:56 p.m.

Reference frame: TEME

Reference center: EARTH

Epoch: May 2, 2025, 12:50 p.m. UTC

TLE line 0: 0 METEOR 2-5 DEB

TLE line 1: 1 38278U 79095BY 25122.53539562 .00007263 00000-0 26208-2 0 9996

TLE line 2: 2 38278 81.1755 189.0654 0009772 121.9151 303.9875 14.33508072701696

Live tracking on map

Real-time ground track for satellite METEOR 2-5 DEB.

In-orbit conjunctions

A list of the most updated potential collisions computed for object METEOR 2-5 DEB.

Target Orbit TCA Probability of collision Miss distance Type
CZ-2D R/B SSO 2024-10-05 12:03:41 0.0002091697 77.0 (m) ROCKET BODY
DELTA 1 DEB SSO 2024-09-28 21:49:58 0.0001319518 327.0 (m) DEBRIS
FENGYUN 1C DEB SSO 2024-07-06 10:33:08 0.0003320361 108.0 (m) DEBRIS

Associated space launch

Second generation soviet meteorological satellite

METEOR 2-5 DEB was lifted into orbit during the mission ‘Vostok 8A92M | Meteor-2 5’, on board a Vostok 8A92M space rocket.

The launch took place on Oct. 31, 1979, 9:25 a.m. from 43/4 (43R).

For more information about the launch, click the button.

Launch to space Vostok 8A92M | Meteor-2 5
Vostok 8A92M | Meteor-2 5

Agency: N/A

Status: Launch Successful

Launch date: Oct. 31, 1979, 9:25 a.m. UTC

Rocket: Vostok 8A92M

Launch pad: 43/4 (43R)

Location: Plesetsk Cosmodrome, Russian Federation

...

Latest news about this satellite

There are no fresh news available about this satellite. Check back as we update our databases every day.


Newsletter sign-up

Weekly statistics, charts and insights to help you stay on top of the space industry.